Location: Greenwich
(51.4790°N, 0.0090°E)
Time: 23:21:24
(UTC+01:00)

Transit 4A - Pass Details

Date: 24 April 2024
Orbit: 871 x 971 km, 66.8° (Epoch: 17 May)

Event Time Altitude Azimuth Distance (km) Brightness Sun altitude
Rises 22:06:16 0° 318° (NW) 3,471 12.8 -15.3°
Reaches altitude 10° 22:08:56 10° 309° (NW) 2,529 11.5 -15.6°
Maximum altitude 22:14:08 35° 246° (WSW) 1,389 9.0 -16.2°
Enters shadow 22:18:41 13° 186° (S) 2,316 9.6 -16.6°
